Location: Unspecified
(49.2170°N, 0.0000°E)
Time: 17:41:58
(UTC+00:00)

A-11 Canister half - Pass Details

Date: 20 June 2019
Orbit: 1526 x 1682 km, 47.3° (Epoch: 24 August)

Event Time Altitude Azimuth Distance (km) Brightness Sun altitude
Rises 07:35:26 0° 262° (W) 4,705 11.0 32.7°
Reaches altitude 10° 07:38:30 10° 262° (W) 3,711 10.6 33.2°
Maximum altitude 07:47:50 80° 177° (S) 1,549 9.7 34.7°
Drops below altitude 10° 07:57:10 10° 93° (E) 3,709 12.4 36.2°
Sets 08:00:13 0° 92° (E) 4,703 12.5 36.7°
